Location: Ferchesar
(52.6477°N, 12.4298°E)
Time: 18:04:52
(UTC+01:00)

Vanguard 1 Rocket - Pass Details

Date: 12 December 2021
Orbit: 651 x 4224 km, 34.3° (Epoch: 16 January)

Event Time Altitude Azimuth Distance (km) Brightness Sun altitude
Exits shadow 02:44:25 28° 149° (SSE) 3,570 10.3 -47.6°
Drops below altitude 10° 02:54:33 10° 117° (ESE) 5,947 11.8 -46.2°
Sets 03:01:03 0° 110° (ESE) 7,537 12.5 -45.3°
